Find DMSP 6530

NORAD ID: 6275 Int'l Des: 1972-089 Owner: SAMSO Country: US operational
LEOCIRCULARRETROGRADESSO

Live Position

Loading 3D Globe...

About DMSP 6530

Description loading...

Upcoming Passes

Passes for default location (London). Set your location on the main map for personalized predictions.

Altitude History

Loading altitude history...

Two-Line Element Set

1 06275U 72089A 26106.03036246 .00000183 00000-0 87233-4 0 9994
2 06275 98.5262 273.9838 0035518 142.5333 217.8336 14.29921639775798
Epoch: Apr 16, 2026 • Age: 19 hours

Current Status

Altitude 808.7 km
Velocity 7.44 km/s
Sub-Earth Point 15.40°N, 138.32°E
Type other

Most Searched